Abingdon, VA

1:47 AM EDT on May 25, 2017 (GMT -0400)
Virginia Highlands

Weather History for KVJI - October, 2011

Change the Weather History Date:

Wednesday, October 19, 2011

  Actual Average (KTRI) Record (KTRI)
Temperature  
Mean Temperature 53 °F -  
Max Temperature 62 °F 66 °F 86 °F (2016)
Min Temperature 44 °F 41 °F 24 °F (1948)
Degree Days  
Heating Degree Days 12    
Growing Degree Days 3 (Base 50)    
Moisture  
Dew Point 51 °F    
Average Humidity 80    
Maximum Humidity 94    
Minimum Humidity 63    
Precipitation  
Precipitation 0.44 in - - ()
Sea Level Pressure  
Sea Level Pressure 29.47 in    
Wind  
Wind Speed 9 mph (ESE)    
Max Wind Speed 21 mph    
Max Gust Speed 30 mph    
Visibility 8 miles    
Events Rain    
Averages and records for this station are not official NWS values.
T = Trace of Precipitation, MM = Missing Value Source: NWS Daily Summary

Daily Weather History Graph

Daily Weather History Graph

Search for Another Location

Airport or City:

Trip Planner

Search our weather history database for the weather conditions in past years. The results will help you decide how hot, cold, wet, or windy it might be!

Date:

Astronomy

Oct. 19, 2011 Rise Set
Actual Time 7:38 AM EDT 6:46 PM EDT
Civil Twilight 7:12 AM EDT 7:12 PM EDT
Nautical Twilight 6:42 AM EDT 7:42 PM EDT
Astronomical Twilight 6:12 AM EDT 8:12 PM EDT
Moon No Moon Rise 2:04 PM EDT (10/19)
Length of Visible Light 12h 00m
Length of Day
11h 07m
Waning Gibbous, 55% of the Moon is Illuminated
Oct 19
Waning Gibbous
Oct 19
Last Quarter
Oct 26
New
Nov 2
First Quarter
Nov 10
Full

Hourly Weather History & Observations

Time (EDT) Temp. Windchill Dew Point Humidity Pressure Visibility Wind Dir Wind Speed Gust Speed Precip Events Conditions
12:15 AM 62.6 °F - 50.0 °F 63% 29.62 in 10.0 mi ESE 8.1 mph - N/A   Mostly Cloudy
12:35 AM 62.6 °F - 50.0 °F 63% 29.61 in 10.0 mi East 9.2 mph - N/A   Clear
12:55 AM 62.6 °F - 50.0 °F 63% 29.60 in 10.0 mi ESE 8.1 mph - N/A   Mostly Cloudy
1:15 AM 62.6 °F - 51.8 °F 68% 29.59 in 10.0 mi ESE 6.9 mph - N/A   Overcast
1:35 AM 62.6 °F - 51.8 °F 68% 29.59 in 10.0 mi ESE 8.1 mph - N/A   Overcast
1:55 AM 62.6 °F - 51.8 °F 68% 29.58 in 10.0 mi ESE 6.9 mph - N/A   Overcast
2:15 AM 62.6 °F - 51.8 °F 68% 29.57 in 10.0 mi SE 11.5 mph - N/A   Overcast
2:35 AM 62.6 °F - 51.8 °F 68% 29.57 in 10.0 mi SE 10.4 mph - N/A   Overcast
3:15 AM 62.6 °F - 51.8 °F 68% 29.56 in 10.0 mi SE 9.2 mph - N/A   Mostly Cloudy
3:35 AM 62.6 °F - 51.8 °F 68% 29.55 in 10.0 mi ESE 8.1 mph - N/A   Mostly Cloudy
3:55 AM 60.8 °F - 51.8 °F 72% 29.54 in 10.0 mi East 11.5 mph - N/A   Overcast
4:15 AM 62.6 °F - 50.0 °F 63% 29.52 in 10.0 mi East 9.2 mph - N/A   Mostly Cloudy
4:35 AM 62.6 °F - 50.0 °F 63% 29.52 in 10.0 mi East 11.5 mph - N/A   Mostly Cloudy
4:55 AM 60.8 °F - 51.8 °F 72% 29.52 in 10.0 mi East 8.1 mph - N/A   Overcast
5:15 AM 60.8 °F - 51.8 °F 72% 29.51 in 10.0 mi East 6.9 mph - N/A   Overcast
5:35 AM 60.8 °F - 51.8 °F 72% 29.49 in 10.0 mi East 9.2 mph - N/A   Overcast
5:55 AM 60.8 °F - 51.8 °F 72% 29.49 in 10.0 mi East 10.4 mph - N/A   Overcast
6:15 AM 60.8 °F - 53.6 °F 77% 29.48 in 10.0 mi East 9.2 mph - N/A   Overcast
6:55 AM 60.8 °F - 51.8 °F 72% 29.47 in 10.0 mi East 10.4 mph - N/A   Mostly Cloudy
7:15 AM 60.8 °F - 53.6 °F 77% 29.46 in 10.0 mi East 8.1 mph - N/A   Mostly Cloudy
7:35 AM 60.8 °F - 53.6 °F 77% 29.45 in 10.0 mi ESE 11.5 mph - N/A   Mostly Cloudy
7:55 AM 60.8 °F - 53.6 °F 77% 29.45 in 10.0 mi East 11.5 mph - N/A   Overcast
8:35 AM 62.6 °F - 53.6 °F 72% 29.44 in 10.0 mi East 10.4 mph - N/A   Overcast
8:55 AM 62.6 °F - 53.6 °F 72% 29.45 in 10.0 mi East 4.6 mph - N/A   Overcast
9:15 AM 62.6 °F - 53.6 °F 72% 29.44 in 10.0 mi ESE 11.5 mph 17.3 mph N/A   Overcast
9:35 AM 62.6 °F - 53.6 °F 72% 29.43 in 10.0 mi ESE 9.2 mph - N/A   Overcast
10:15 AM 62.6 °F - 55.4 °F 77% 29.42 in 10.0 mi East 5.8 mph - N/A Rain Rain
10:35 AM 62.6 °F - 55.4 °F 77% 29.42 in 7.0 mi Calm Calm - 0.01 in Rain Heavy Rain
11:15 AM 60.8 °F - 57.2 °F 88% 29.40 in 5.0 mi NE 3.5 mph - 0.02 in Rain Light Rain
11:35 AM 60.8 °F - 57.2 °F 88% 29.39 in 10.0 mi Calm Calm - 0.03 in Rain Rain
12:15 PM 60.8 °F - 59.0 °F 94% 29.39 in 2.0 mi Calm Calm - 0.09 in Rain Rain
12:35 PM 62.6 °F - 60.8 °F 94% 29.36 in 10.0 mi East 3.5 mph - 0.10 in   Overcast
1:35 PM 62.6 °F - 57.2 °F 82% 29.32 in 10.0 mi Calm Calm - 0.01 in Rain Light Rain
1:55 PM 60.8 °F - 59.0 °F 94% 29.34 in 2.5 mi West 11.5 mph - 0.10 in Rain Rain
2:15 PM 59.0 °F - 57.2 °F 94% 29.33 in 4.0 mi West 17.3 mph 24.2 mph 0.06 in Rain Light Rain
2:35 PM 55.4 °F - 51.8 °F 88% 29.35 in 10.0 mi West 20.7 mph 29.9 mph 0.06 in   Overcast
2:55 PM 53.6 °F - 50.0 °F 88% 29.37 in 3.0 mi West 12.7 mph 25.3 mph 0.06 in Rain Light Rain
3:15 PM 51.8 °F - 50.0 °F 94% 29.38 in 3.0 mi West 9.2 mph 21.9 mph 0.02 in Rain Rain
3:55 PM 50.0 °F - 46.4 °F 87% 29.40 in 3.0 mi WNW 15.0 mph 18.4 mph 0.06 in Rain Rain
4:15 PM 50.0 °F - 46.4 °F 87% 29.40 in 2.5 mi West 12.7 mph 18.4 mph 0.03 in Rain Light Rain
4:35 PM 50.0 °F - 46.4 °F 87% 29.41 in 5.0 mi West 11.5 mph 25.3 mph 0.04 in   Light Drizzle
4:55 PM 48.2 °F - 46.4 °F 93% 29.42 in 2.5 mi West 12.7 mph 23.0 mph 0.04 in Rain Light Rain
5:15 PM 48.2 °F - 44.6 °F 87% 29.44 in 5.0 mi West 11.5 mph 23.0 mph 0.01 in   Light Drizzle
5:35 PM 46.4 °F 40.4 °F 44.6 °F 93% 29.44 in 7.0 mi West 13.8 mph 20.7 mph 0.02 in Rain Rain
5:55 PM 46.4 °F 40.7 °F 44.6 °F 93% 29.45 in 5.0 mi WNW 12.7 mph 19.6 mph 0.02 in   Overcast
6:15 PM 46.4 °F 40.7 °F 44.6 °F 93% 29.47 in 2.0 mi West 12.7 mph 19.6 mph 0.01 in   Drizzle
6:35 PM 44.6 °F 37.8 °F 42.8 °F 93% 29.47 in 4.0 mi West 15.0 mph 21.9 mph 0.02 in   Light Drizzle
6:55 PM 44.6 °F 37.8 °F 42.8 °F 93% 29.47 in 2.5 mi West 15.0 mph 23.0 mph 0.02 in Rain Light Rain
7:15 PM 44.6 °F 37.8 °F 42.8 °F 93% 29.48 in 10.0 mi West 15.0 mph 24.2 mph N/A   Overcast
7:35 PM 44.6 °F 39.7 °F 42.8 °F 93% 29.49 in 7.0 mi West 9.2 mph 21.9 mph N/A   Overcast
7:55 PM 44.6 °F 39.7 °F 42.8 °F 93% 29.50 in 7.0 mi West 9.2 mph - N/A   Drizzle
8:15 PM 44.6 °F 38.8 °F 42.8 °F 93% 29.50 in 5.0 mi West 11.5 mph 18.4 mph 0.01 in Rain Light Rain
8:35 PM 44.6 °F 37.2 °F 42.8 °F 93% 29.50 in 3.0 mi West 17.3 mph 24.2 mph 0.02 in   Drizzle
8:55 PM 44.6 °F 37.2 °F 42.8 °F 93% 29.51 in 3.0 mi West 17.3 mph - 0.02 in Rain Light Rain
9:15 PM 44.6 °F 38.1 °F 42.8 °F 93% 29.52 in 7.0 mi West 13.8 mph 21.9 mph 0.01 in   Light Drizzle
9:35 PM 44.6 °F 37.4 °F 41.0 °F 87% 29.52 in 10.0 mi West 16.1 mph 20.7 mph 0.01 in   Overcast
9:55 PM 44.6 °F 38.1 °F 41.0 °F 87% 29.52 in 7.0 mi West 13.8 mph 21.9 mph 0.01 in   Drizzle
10:15 PM 44.6 °F 37.4 °F 41.0 °F 87% 29.52 in 5.0 mi West 16.1 mph 19.6 mph N/A   Light Drizzle
10:35 PM 44.6 °F 38.1 °F 41.0 °F 87% 29.53 in 7.0 mi West 13.8 mph 24.2 mph N/A   Light Drizzle
10:55 PM 44.6 °F 38.1 °F 41.0 °F 87% 29.52 in 10.0 mi West 13.8 mph - N/A   Overcast
11:15 PM 44.6 °F 38.8 °F 41.0 °F 87% 29.52 in 10.0 mi West 11.5 mph 19.6 mph N/A   Overcast
11:35 PM 44.6 °F 38.1 °F 41.0 °F 87% 29.52 in 10.0 mi West 13.8 mph 23.0 mph N/A   Overcast
11:55 PM 44.6 °F 39.2 °F 41.0 °F 87% 29.52 in 10.0 mi West 10.4 mph 21.9 mph 0.01 in   Overcast